Welcome to the New NWS' Forecast!
Most changes are behind the scenes, but click here for differences you might notice.

Regional Weather Roundup (RWR)

Issued by Bismarck, ND (BIS)

                            
526 
ASUS43 KBIS 201302
RWRBIS

NWR BROADCAST TEXT
NATIONAL WEATHER SERVICE BISMARCK ND
800 AM CDT MON AUG 20 2018

NOTE: "FAIR" INDICATES FEW OR NO CLOUDS BELOW 12,000 FEET WITH NO
SIGNIFICANT WEATHER AND/OR OBSTRUCTIONS TO VISIBILITY.

  
CITY           SKY/WX    TMP DP  RH WIND       PRES   REMARKS
WILLISTON      CLEAR     46  38  73 NE3       30.27R                  
MINOT          SUNNY     51  42  71 W5        30.25R                  
MINOT AFB      SUNNY     46  41  81 NW5       30.25R                  
BISMARCK       SUNNY     52  46  80 W5        30.23R                  
DICKINSON      PTCLDY    44  38  79 NW6       30.25R                  
GARRISON         N/A     47  42  83 N7        30.24R                  
HETTINGER ARPT PTCLDY    42  39  89 CALM      30.25R                  
JAMESTOWN      SUNNY     52  50  93 N8        30.17R                  
CARRINGTON     FAIR      50  48  93 N5        30.23R                  
HAZEN          FAIR      43  43 100 CALM      30.27R                  
LINTON           N/A     52  48  87 N8        30.22R                  
MANDAN         FAIR      50  50 100 NW6       30.24R                  
OAKES          FAIR      55  55 100 N14       30.13R                  
RUGBY          FAIR      45  45 100 CALM      30.24R                  
STANLEY          N/A     46  45  93 N3        30.27R                  
TIOGA          FAIR      41  37  87 CALM      30.29R                  
WATFORD CITY   FAIR      43  39  87 CALM      30.27R                  
$$
  
CITY           SKY/WX    TMP DP  RH WIND       PRES   REMARKS
GRAND FORKS    FAIR      53  53 100 N12       30.15R                  
GRAND FORKS AF FAIR      55  52  88 N12       30.17R                  
DEVILS LAKE    FAIR      51  48  89 N8        30.22R                  
FARGO          FAIR      53  52  96 N10       30.11R                  
CANDO          FAIR      50  50 100 N6        30.25R                  
CAVALIER       FAIR      55  50  82 N8        30.19R                  
GRAFTON        FAIR      54  52  94 N13       30.20R                  
GWINNER          N/A     55  52  88 N10       30.11R                  
LANGDON        FAIR      48  48 100 N5        30.22R                  
ROLLA          FAIR      50  48  93 NW7       30.25R                  
WALHALLA       FAIR      54  54 100 NW6       30.21R                  
$$
  
CITY           SKY/WX    TMP DP  RH WIND       PRES   REMARKS
ABERDEEN       MOSUNNY   56  51  84 N15       30.11R                  
MOBRIDGE       SUNNY     55  51  86 N7        30.17R                  
BUFFALO          N/A     46  39  76 CALM      30.23R                  
RAPID CITY     CLEAR     46  40  79 NW7       30.25R                  
GLASGOW        CLOUDY    57  34  41 SE9       30.25R                  
SIDNEY         CLEAR     46  36  68 CALM      30.27R                  
WOLF POINT     CLOUDY    51  38  60 CALM      30.27R                  
GLENDIVE       PTCLDY    49  34  56 N5        30.27R                  
MILES CITY     MOCLDY    50  41  71 NE10      30.22R                  
BAKER          MOCLDY    46  42  86 SE5       30.27R                  
$$
  
CITY           SKY/WX    TMP DP  RH WIND       PRES   REMARKS
BILLINGS       CLOUDY    51  49  92 NE17      30.18F THUNDER          
GREAT FALLS    CLOUDY    52  42  69 NE12      30.21R                  
$$